Terminal Aerodrome Forecast
Issued by NWS Knoxville/Tri Cities, TN

Home | Current Version | Previous Version | Text Only | Print | Product List | Glossary On
Versions: 1 2 3 4 5 6 7 8 9 10 11 12 13 14
000
FTUS44 KMRX 171731
TAFCHA
TAF
KCHA 171731Z 1718/1818 23010KT P6SM VCTS BKN030CB
     FM180000 21003KT P6SM VCSH SCT050 SCT250
     FM181500 24007KT P6SM BKN050=

USA.gov is the U.S. government's official web portal to all federal, state and local government web resources and services.